Moline, IL
on Friday, February 21, 2014

Friday
Previous Day Next Day
Daily Summary
 ActualAverageRecord
Temperature
Mean Temperature °F 29°F  
Max Temperature 38°F 38°F 66°F (1930)
Min Temperature 24°F 20°F -8°F (1963)
Degree Days
Heating Degree Days 34 36  
Month to date heating degree days 1065 824  
Since 1 July heating degree days 5332 4558  
Cooling Degree Days 0 0  
Month to date cooling degree days 0 0  
Year to date cooling degree days 0 0  
Moisture
Dew Point 20°F   
Average Humidity 63    
Maximum Humidity 81    
Minimum Humidity 44    
Precipitation
Precipitation T in 0.06 in 1.27 in (1985)
Month to date precipitation 2.83 1.09  
Year to date precipitation 4.00 2.58  
Snow
Snow T in 0.20 in in ()
Month to date snowfall 21.8 5.4  
Since 1 July snowfall 54.3 25.3  
Snow Depth T in   
Wind
Wind Speed 18 mph   
Max Wind Speed 35 mph   
Max Gust Speed 45 mph   
Visibility 9 miles   
Events Snow   

Key: T is trace of precipitation, MM is missing value
Source: NWS Daily Summary
Time(CST)TemperatureDew PointHumidity Pressure Visibility Wind DirectionWind SpeedGust SpeedPrecipitationEvents Conditions
12:12 AM 33.8°F 28.4°F 81% 29.42 in 2.5 miles West 26.5 mph 39.1 mph 0.00 in Snow Light Snow
12:21 AM 32.0°F 28.4°F 87% 29.42 in 3.0 miles West 32.2 mph 38.0 mph 0.00 in Snow Light Snow
12:52 AM 32.0°F 27.0°F 82% 29.47 in 3.0 miles West 24.2 mph 32.2 mph 0.00 in Snow Light Snow
1:52 AM 30.0°F 24.1°F 79% 29.51 in 6.0 miles West 28.8 mph 35.7 mph 0.00 in Snow Light Snow
2:52 AM 28.9°F 23.0°F 78% 29.54 in 8.0 miles West 29.9 mph 35.7 mph 0.00 in   Overcast
3:52 AM 28.0°F 21.0°F 75% 29.57 in 10.0 miles West 20.7 mph 39.1 mph 0.00 in   Overcast
4:52 AM 27.0°F 19.0°F 72% 29.61 in 10.0 miles West 21.9 mph 34.5 mph N/A   Overcast
5:52 AM 27.0°F 18.0°F 69% 29.64 in 10.0 miles WSW 26.5 mph 40.3 mph N/A   Overcast
6:52 AM 24.1°F 14.0°F 65% 29.67 in 10.0 miles West 29.9 mph 43.7 mph N/A   Overcast
7:52 AM 24.1°F 14.0°F 65% 29.70 in 10.0 miles West 25.3 mph 33.4 mph N/A   Partly Cloudy
8:52 AM 26.1°F 15.1°F 63% 29.71 in 10.0 miles West 26.5 mph 33.4 mph N/A   Clear
9:52 AM 28.0°F 16.0°F 61% 29.73 in 10.0 miles West 25.3 mph 36.8 mph N/A   Clear
10:52 AM 30.0°F 16.0°F 56% 29.75 in 10.0 miles West 21.9 mph 33.4 mph N/A   Clear
11:52 AM 32.0°F 15.1°F 50% 29.76 in 10.0 miles WSW 23.0 mph 31.1 mph N/A   Clear
12:52 PM 33.1°F 15.1°F 48% 29.75 in 10.0 miles West 20.7 mph 27.6 mph N/A   Clear
1:52 PM 36.0°F 17.1°F 46% 29.75 in 10.0 miles West 24.2 mph 31.1 mph N/A   Clear
2:52 PM 37.0°F 18.0°F 46% 29.77 in 10.0 miles WSW 19.6 mph 27.6 mph N/A   Clear
3:52 PM 36.0°F 19.9°F 52% 29.79 in 10.0 miles WSW 16.1 mph 23.0 mph N/A   Clear
4:52 PM 36.0°F 23.0°F 59% 29.81 in 10.0 miles WSW 9.2 mph - N/A   Mostly Cloudy
5:52 PM 35.1°F 24.1°F 64% 29.82 in 10.0 miles WSW 8.1 mph - N/A   Overcast
6:52 PM 34.0°F 23.0°F 64% 29.84 in 10.0 miles West 3.5 mph - N/A   Overcast
7:52 PM 34.0°F 21.9°F 61% 29.85 in 10.0 miles WNW 8.1 mph - N/A   Overcast
8:52 PM 32.0°F 21.0°F 64% 29.87 in 10.0 miles WNW 4.6 mph - N/A   Partly Cloudy
9:52 PM 28.0°F 21.0°F 75% 29.88 in 10.0 miles Calm Calm - N/A   Clear
10:52 PM 27.0°F 21.0°F 78% 29.88 in 10.0 miles WSW 3.5 mph - N/A   Clear
11:52 PM 26.1°F 19.0°F 75% 29.89 in 10.0 miles WSW 6.9 mph - N/A   Clear
Astronomy
Sunrise:06:48 AM (CST) Moon Rise:No Moon Rise/
Sunset:05:43 PM (CST) Moon Set:10:08 AM (CST)2/21
Moon Phase
Feb. 21 Feb. 22 Mar. 01 Mar. 08 Mar. 16

Copyright © 2014 The Weather Underground, Inc.


Local events heading








  (More History)